, AK

(GMT )
Deadhorse

Weather History for PASC - February, 2013

Change the Weather History Date:

Sunday, February 3, 2013

  Actual Average Record
Temperature  
Mean Temperature -12 °F -  
Max Temperature -9 °F -7 °F 20 °F (1989)
Min Temperature -14 °F -20 °F -52 °F (1991)
Degree Days  
Heating Degree Days 76    
Moisture  
Dew Point -15 °F    
Average Humidity 82    
Maximum Humidity 84    
Minimum Humidity 77    
Precipitation  
Precipitation 0.00 in - - ()
Sea Level Pressure  
Sea Level Pressure 29.91 in    
Wind  
Wind Speed 20 mph (NE)    
Max Wind Speed 25 mph    
Max Gust Speed 31 mph    
Visibility 4 miles    
Events Snow    
Averages and records for this station are not official NWS values.
T = Trace of Precipitation, MM = Missing Value Source: NWS Daily Summary

Daily Weather History Graph

Daily Weather History Graph

Search for Another Location

Airport or City:

Trip Planner

Search our weather history database for the weather conditions in past years. The results will help you decide how hot, cold, wet, or windy it might be!

Date:

Astronomy

Feb. 03, 2013 Rise Set
Actual Time 10:27 AM AKST 3:48 PM AKST
Civil Twilight 9:05 AM AKST 5:11 PM AKST
Nautical Twilight 7:47 AM AKST 6:29 PM AKST
Astronomical Twilight 6:36 AM AKST 7:40 PM AKST
Moon 4:39 AM AKST (2/3) 8:51 AM AKST (2/3)
Length of Visible Light 8h 06m
Length of Day
5h 20m
Waning Gibbous, 47% of the Moon is Illuminated
Feb 3
Waning Gibbous
Feb 9
New
Feb 17
First Quarter
Feb 25
Full
Mar 4
Last Quarter

Hourly Weather History & Observations

Time (AKST) Temp. Windchill Dew Point Humidity Pressure Visibility Wind Dir Wind Speed Gust Speed Precip Events Conditions
12:16 AM -13.0 °F -36.0 °F -16.6 °F 84% 29.90 in 3.0 mi ENE 15.0 mph - N/A Snow Light Snow
12:46 AM -11.2 °F -37.6 °F -16.6 °F 77% 29.90 in 3.0 mi ENE 21.9 mph - N/A Snow Blowing Snow
12:53 AM -11.2 °F -37.0 °F -16.6 °F 77% 29.90 in 3.0 mi ENE 20.7 mph - N/A Snow Blowing Snow
1:53 AM -11.2 °F -37.0 °F -14.8 °F 84% 29.89 in 3.0 mi ENE 20.7 mph 28.8 mph N/A Snow Blowing Snow
2:26 AM -11.2 °F -37.6 °F -14.8 °F 84% 29.89 in 2.5 mi ENE 21.9 mph - N/A Snow Blowing Snow
2:53 AM -11.2 °F -38.7 °F -14.8 °F 84% 29.88 in 2.5 mi ENE 24.2 mph - N/A Snow Blowing Snow
3:28 AM -11.2 °F -37.6 °F -14.8 °F 84% 29.88 in 3.0 mi ENE 21.9 mph - N/A Snow Blowing Snow
3:53 AM -9.4 °F -34.7 °F -14.8 °F 77% 29.88 in 5.0 mi ENE 20.7 mph - N/A Snow Blowing Snow
4:53 AM -9.4 °F -35.8 °F -14.8 °F 77% 29.87 in 3.0 mi ENE 23.0 mph - N/A Snow Blowing Snow
5:53 AM -9.4 °F -35.2 °F -13.0 °F 84% 29.86 in 3.0 mi ENE 21.9 mph 31.1 mph N/A Snow Blowing Snow
7:04 AM -9.4 °F -34.1 °F -13.0 °F 84% 29.87 in 3.0 mi NE 19.6 mph - N/A Snow Blowing Snow
7:53 AM -9.4 °F -34.7 °F -13.0 °F 84% 29.87 in 4.0 mi ENE 20.7 mph - N/A Snow Blowing Snow
8:53 AM -9.4 °F -36.8 °F -13.0 °F 84% 29.87 in 4.0 mi ENE 25.3 mph - N/A Snow Blowing Snow
9:54 AM -9.4 °F -34.7 °F -13.0 °F 84% 29.87 in 3.0 mi ENE 20.7 mph - N/A Snow Blowing Snow
10:53 AM -9.4 °F -35.8 °F -13.0 °F 84% 29.88 in 3.0 mi ENE 23.0 mph - N/A Snow Blowing Snow
11:53 AM -9.4 °F -35.8 °F -14.8 °F 77% 29.88 in 3.0 mi ENE 23.0 mph - N/A Snow Blowing Snow
12:04 PM - - - N/A% - - North - - N/A   Unknown
12:08 PM - - - N/A% - - North - - N/A   Unknown
12:13 PM - - - N/A% - - North - - N/A   Unknown
12:17 PM - - - N/A% - - North - - N/A   Unknown
12:20 PM - - - N/A% - - North - - N/A   Unknown
12:24 PM - - - N/A% - - North - - N/A   Unknown
12:28 PM - - - N/A% - - North - - N/A   Unknown
12:31 PM - - - N/A% - - North - - N/A   Unknown
12:35 PM - - - N/A% - - North - - N/A   Unknown
12:40 PM - - - N/A% - - North - - N/A   Unknown
12:44 PM - - - N/A% - - North - - N/A   Unknown
12:48 PM - - - N/A% - - North - - N/A   Unknown
12:53 PM - - - N/A% - - North - - N/A   Unknown
12:57 PM - - - N/A% - - North - - N/A   Unknown
1:01 PM - - - N/A% - - North - - N/A   Unknown
1:53 PM -9.4 °F -33.5 °F -14.8 °F 77% 29.90 in 5.0 mi NNE 18.4 mph - N/A Snow Blowing Snow
2:57 PM -11.2 °F -37.0 °F -14.8 °F 84% 29.90 in 4.0 mi ENE 20.7 mph - N/A Snow Blowing Snow
3:53 PM -11.2 °F -37.0 °F -14.8 °F 84% 29.91 in 3.0 mi NE 20.7 mph - N/A Snow Blowing Snow
4:53 PM -11.2 °F -37.0 °F -14.8 °F 84% 29.91 in 5.0 mi NE 20.7 mph - N/A Snow Blowing Snow
5:53 PM -11.2 °F -35.2 °F -16.6 °F 77% 29.92 in 5.0 mi NE 17.3 mph - N/A Snow Blowing Snow
6:53 PM -11.2 °F -37.0 °F -16.6 °F 77% 29.94 in 5.0 mi NE 20.7 mph 26.5 mph N/A Snow Blowing Snow
7:53 PM -11.2 °F -36.4 °F -16.6 °F 77% 29.96 in 5.0 mi NNE 19.6 mph - N/A Snow Blowing Snow
8:53 PM -13.0 °F -35.2 °F -16.6 °F 84% 29.96 in 6.0 mi NNE 13.8 mph - N/A Snow Blowing Snow
9:53 PM -14.8 °F -39.1 °F -18.4 °F 84% 29.98 in 5.0 mi NE 16.1 mph - N/A Snow Blowing Snow
10:53 PM -14.8 °F -40.5 °F -18.4 °F 84% 30.00 in 3.0 mi NE 18.4 mph - N/A Snow Blowing Snow
11:45 PM -14.8 °F -39.8 °F -18.4 °F 84% 30.01 in 3.0 mi NE 17.3 mph - N/A Snow Blowing Snow
11:53 PM -14.8 °F -39.1 °F -18.4 °F 84% 30.01 in 3.0 mi NE 16.1 mph - N/A Snow Blowing Snow